TimeCDT,TemperatureF,Dew PointF,Humidity,Sea Level PressureIn,VisibilityMPH,Wind Direction,Wind SpeedMPH,Gust SpeedMPH,PrecipitationIn,Events,Conditions,WindDirDegrees,DateUTC
12:52 AM,30.9,25.0,79,30.45,-9999.0,NW,8.1,-,N/A,,Unknown,310,2012-10-06 05:52:00
1:52 AM,30.9,25.0,79,30.45,-9999.0,NW,8.1,-,N/A,,Unknown,320,2012-10-06 06:52:00
2:52 AM,30.9,24.1,76,30.45,-9999.0,NW,9.2,-,N/A,,Unknown,320,2012-10-06 07:52:00
3:52 AM,28.0,23.0,81,30.45,-9999.0,NW,8.1,-,N/A,,Unknown,310,2012-10-06 08:52:00
4:52 AM,26.1,21.9,84,30.45,-9999.0,NW,8.1,-,N/A,,Unknown,320,2012-10-06 09:52:00
5:52 AM,23.0,19.9,88,30.45,-9999.0,NW,9.2,-,N/A,,Unknown,310,2012-10-06 10:52:00
6:52 AM,21.9,18.0,85,30.46,-9999.0,NW,8.1,-,N/A,,Unknown,310,2012-10-06 11:52:00
7:52 AM,21.9,18.0,85,30.48,-9999.0,NW,6.9,-,N/A,,Unknown,320,2012-10-06 12:52:00
8:52 AM,26.1,19.0,75,30.47,-9999.0,WNW,6.9,-,N/A,,Unknown,300,2012-10-06 13:52:00
9:52 AM,34.0,25.0,70,30.46,-9999.0,WNW,5.8,-,N/A,,Unknown,290,2012-10-06 14:52:00
10:52 AM,37.0,27.0,67,30.45,-9999.0,West,11.5,-,N/A,,Unknown,280,2012-10-06 15:52:00
11:52 AM,39.9,24.1,53,30.42,-9999.0,West,12.7,20.7,N/A,,Unknown,270,2012-10-06 16:52:00
12:52 PM,42.1,23.0,47,30.40,-9999.0,West,10.4,20.7,N/A,,Unknown,260,2012-10-06 17:52:00
1:52 PM,43.0,19.9,40,30.37,-9999.0,WSW,12.7,-,N/A,,Unknown,250,2012-10-06 18:52:00
2:52 PM,44.1,18.0,35,30.33,-9999.0,West,10.4,19.6,N/A,,Unknown,260,2012-10-06 19:52:00
3:52 PM,45.0,15.1,30,30.31,-9999.0,West,15.0,20.7,N/A,,Unknown,280,2012-10-06 20:52:00
4:52 PM,45.0,17.1,33,30.29,-9999.0,WNW,10.4,21.9,N/A,,Unknown,290,2012-10-06 21:52:00
5:52 PM,46.0,19.0,34,30.26,-9999.0,West,10.4,20.7,N/A,,Unknown,280,2012-10-06 22:52:00
6:52 PM,41.0,21.0,45,30.25,-9999.0,West,5.8,-,N/A,,Unknown,260,2012-10-06 23:52:00
7:52 PM,35.1,21.0,57,30.25,-9999.0,West,5.8,-,N/A,,Unknown,260,2012-10-07 00:52:00
8:52 PM,34.0,21.0,59,30.23,-9999.0,West,6.9,-,N/A,,Unknown,260,2012-10-07 01:52:00
9:52 PM,32.0,19.9,61,30.20,-9999.0,WSW,9.2,-,N/A,,Unknown,250,2012-10-07 02:52:00
10:52 PM,32.0,25.0,75,30.18,-9999.0,WSW,8.1,-,N/A,,Unknown,250,2012-10-07 03:52:00
11:52 PM,33.1,25.0,72,30.15,-9999.0,North,-9999.0,-,N/A,,Unknown,0,2012-10-07 04:52:00